Location: Kailua
(21.4020°N, 157.7390°W)
Time: 10:15:27
(UTC-10:00)

Daily predictions for brighter satellites

Satellite Brightness Start Highest point End
(mag) Time Altitude Azimuth Time Altitude Azimuth Time Altitude Azimuth
Cosmos 1833 4.2 19:08:51 10° NNW 19:14:34 82° ENE 19:20:19 10° SSE
NOAA 12 4.2 19:09:46 10° SSE 19:14:53 58° ENE 19:20:01 10° N
Cosmos 2219 3.8 19:13:54 10° N 19:19:04 38° ENE 19:24:14 10° SE
Meteor 2-21 4.5 19:15:12 10° S 19:21:20 69° E 19:27:28 10° N
ATLAS 2AS CENTAUR R/B 3.5 19:15:40 10° NW 19:23:19 61° WSW 19:30:18 10° S
Cosmos 1697 Rocket 4.1 19:20:18 10° SE 19:23:27 15° E 19:26:36 10° ENE
SJ-6B 2.8 19:19:44 10° S 19:23:29 82° WSW 19:27:13 10° NNW
NOSS 7 (H) 4.5 19:19:48 10° SSW 19:23:32 59° ESE 19:26:45 10° NE
ALOS 3.7 19:20:32 10° ESE 19:23:47 19° ENE 19:27:01 10° NNE
Orbus 7S 4.3 19:21:41 10° WSW 19:24:19 88° NNW 19:28:20 10° ENE
Cosmos 1455 Rocket 3.8 19:21:03 10° SSE 19:24:48 30° E 19:28:35 10° NNE
Cosmos 2278 3.7 19:20:26 10° S 19:25:58 59° ESE 19:31:32 10° NNE
Resurs 1-3 4.2 19:22:44 10° SE 19:26:43 35° ENE 19:30:42 10° N
Cosmos 968 Rocket 3.9 19:23:05 10° N 19:27:54 41° ENE 19:32:41 10° SE
Cosmos 1633 3.0 19:25:35 10° SSW 19:29:13 66° W 19:32:51 10° N
Meteor 1-29 3.8 19:26:52 10° N 19:30:15 55° WNW 19:33:40 10° SSW
Cosmos 1025 Rocket 3.4 19:26:26 10° NNE 19:30:32 42° E 19:34:36 10° SSE
Meteor 2-4 Rocket 4.2 19:29:10 10° N 19:34:45 44° E 19:40:22 10° SSE
HJ-1C 3.2 19:32:29 10° SSE 19:35:43 68° ENE 19:38:58 10° N
Meteor 2-14 Rocket 4.4 19:33:12 10° S 19:39:17 69° E 19:45:23 10° N
Cosmos 2369 3.6 19:33:43 10° S 19:39:19 71° ESE 19:44:58 10° NNE
METEOR-M 4.1 19:37:16 10° SSE 19:42:36 78° ENE 19:47:56 10° N
SL-24 R/B - RUBIN 2 4.3 19:38:07 10° S 19:43:14 52° ESE 19:49:04 10° NE
Resurs 01 Rocket 1.6 19:39:46 10° SSE 19:44:10 87° ENE 19:48:36 10° N
USA 186 3.6 19:44:49 15° ENE 19:44:49 15° ENE 19:46:12 10° NE
Hubble Space Telescope 1.9 19:42:28 10° WNW 19:46:18 35° N 19:49:09 16° ENE
Fermi 3.6 19:42:22 10° WSW 19:46:28 86° SSE 19:49:22 19° ENE
EO 1 Delta rocket 4.3 19:42:34 10° NNE 19:47:26 54° E 19:53:21 10° S
GOES 2 Rocket 3.3 19:48:21 10° WNW 19:52:26 54° NNE 19:54:58 23° E
Meteor 1-23 Rocket 4.2 19:49:24 10° N 19:55:02 65° E 20:00:43 10° SSE
FengYun 1-2 T 4.2 19:51:30 10° SSE 19:57:08 76° ENE 20:02:46 10° N
Cosmos 1544 Rocket 4.1 19:54:12 10° SSW 19:58:29 60° W 20:02:48 10° N
Cosmos 1346 Rocket 3.4 19:58:39 10° NNE 20:02:17 34° E 20:02:44 33° E
Cosmos 1934 Rocket 4.2 19:58:29 10° S 20:04:32 74° W 20:10:41 10° N
GPS 2-15 Rocket1 3.2 20:01:18 10° WSW 20:05:55 59° S 20:07:40 35° ESE
Cosmos 1777 Rocket 4.0 20:04:03 10° N 20:09:15 63° ENE 20:12:10 26° SSE
FENGYUN 3A 3.5 20:09:29 16° SSE 20:13:46 73° ENE 20:19:06 10° N
ATLAS 3B CENTAUR R/B 2.7 20:15:10 10° NW 20:15:35 12° NNW 20:15:35 12° NNW
CZ-4B DEB 3.6 20:16:33 22° SSW 20:18:20 50° W 20:21:32 10° NNW
Cosmos 1656 3.6 20:13:27 10° SSW 20:19:07 88° ESE 20:24:44 10° NNE
CZ-4B DEB 4.4 20:20:15 72° ESE 20:20:23 74° ENE 20:23:59 10° N
Cosmos 2227 Rocket 2.8 20:18:41 10° N 20:23:49 35° ENE 20:23:55 35° ENE
Cosmos 2082 4.1 20:32:05 10° N 20:37:00 43° ENE 20:37:00 43° ENE
Cosmos 2297 Rocket 3.2 20:34:22 10° N 20:38:18 31° NE 20:38:18 31° NE
Cosmos 1975 3.5 20:37:41 25° SSW 20:39:51 55° W 20:43:52 10° N
ATLAS 2A CENTAUR R/B 3.0 20:39:18 10° WNW 20:40:50 21° WNW 20:40:50 21° WNW
Cosmos 2173 Rocket 4.0 20:46:34 57° E 20:46:34 57° E 20:52:27 10° NNE
Palapa 6 Rocket 3.8 20:42:10 10° W 20:46:55 45° SW 20:46:55 45° SW
NOSS 3-4 (A) 3.8 20:41:54 10° NNW 20:49:08 68° ENE 20:50:28 58° ESE
NOSS 3-4 (C) 3.8 20:42:02 10° NNW 20:49:15 67° ENE 20:50:33 58° ESE
H-2A R/B 4.4 20:54:01 29° WSW 20:54:27 29° W 20:57:51 10° NW
Cosmos 2100 Rocket 3.8 20:56:21 73° SSE 20:56:57 82° E 21:03:14 10° N
Iridium 4 Rocket 3.8 20:52:35 10° N 20:56:16 51° NNW 20:56:16 51° NNW
Cosmos 2061 Rocket 3.9 20:58:51 72° ENE 20:58:51 72° ENE 21:04:44 10° N
ALOS 4.2 20:58:06 15° SW 21:00:57 26° W 21:04:50 10° NW
ERS-1 Rocket 3.9 21:07:47 42° N 21:07:47 42° N 21:11:03 10° NNW
BREEZE-M DEB (TANK) 4.5 21:02:52 10° WNW 21:05:56 22° W 21:05:56 22° W
Cosmos 1697 Rocket 3.7 21:01:37 10° SW 21:06:58 43° WNW 21:12:19 10° N
NATO 3D Rocket 4.1 21:01:07 10° WSW 21:09:46 79° SSW 21:09:46 79° SSW
Hubble Space Telescope 3.6 21:23:36 10° WNW 21:24:32 16° WNW 21:24:32 16° WNW
Cosmos 1980 Rocket 3.7 21:31:33 30° NNW 21:31:33 30° NNW 21:34:37 10° N
CZ-3C R/B 4.5 22:38:30 10° W 22:44:26 22° W 22:44:26 22° W
